Back to catalog

TANSTAAFL-2

AliveAmateur RadioVLEO
NORAD 62378·PAYLOAD·🇺🇸 United States

Launched Dec 21, 2024 from Vandenberg Space Force Base

Loading…

Next Passes (next 24 hours)

TLE

FreshSource: Space-Track

Epoch: Sep 14, 2026, 10:47 UTC

1 62378U 24247B   26257.44935620  .00006163  00000-0  21215-3 0  9990
2 62378  44.9866 163.1261 0000574 180.3717 179.7167 15.30937222 96634

Track TANSTAAFL-2 in real time with AllMySat

Download on the App Store